Showing default

PERUSAT 1, 41770

Orbit data source: Space-Track

PERUSAT 1, 41770 is a payload satellite owned by MOD Peru (PE) in SSO that was launched on Fri, 16 Sep 2016 UTC via a VEGA launch vehicle from the French Guiana (FRGUI). Payload-class satellites include a variety of spacecraft equipped with specific instruments for various scientific and technological missions. These include communications satellites like Starlink; space stations such as the ISS; scientific satellites like the Hubble; Earth observation satellites from companies like Planet Labs, Umbra, and HawkEye 360; GPS; miniature CubeSats for education and research; and military/defense satellites.

Loading next visibility...
Identifier
41770, 2016-058A
Orbit
SSO
Country
Flag of PEPE / PER
Related business
Manufacturer
Airbus/Toulouse
Mission
Operational Defense Imaging
Bus & Motor
ASTROBUS-S, Unknown motor
Mass
430 kg wet, ~400 kg dry
Launch date (UTC)
Icon of a cake. It is the launch day of the satellite!2016-09-16 (9 years ago)
Launch vehicle
VEGA
Launch site
French Guiana (FRGUI)
Object type
Payload
Rocket body
Debris
Shape & HBR
Hex Cyl + 3 Pan, 2.3 m
Radar Cross Section
3.025 m², Large (>1 m²)

Expand to show TLE details & history
Last TLE update: 10 hours ago

TLE from 10 hours ago
0 PERUSAT 1
1 41770U 16058A   25258.96734672  .00000308  00000-0  76063-4 0  9992
2 41770  98.1807 331.5186 0001414  96.9767 263.1594 14.58553017479127
Epoch: 2025-09-15T23:12Z
TLE epoch observation values (Epoch: 2025-09-15T23:12:58.756Z)
Latitude
0.00005°
Longitude
-11.89063°
Altitude
700.953 km
Speed
7.505 km/s
True Right ascension
22h 06m 04s
True Declination
0° 00' 00"
Sunlit
Object was in full shadow at epoch
Visualization orbit readout
Latitude
Unknown
Longitude
Unknown
Altitude
Unknown
Speed
Unknown
Apparent Right ascension
Unknown
Apparent Declination
Unknown
Sunlit
N/A
Visualization observer readout
Local Sidereal Time
01:49:26
Azimuth
Unknown
Elevation
Unknown
Doppler factor
Unknown
Orbital elements
Apogee altitude
695.932 km
Perigee altitude
693.932 km
Semi-major axis
7,073.069 km
Eccentricity
0.00014
Inclination
98.1807°
RAAN
331.5186°
Arg. of periapsis
96.9767°
True anomaly
263.14331°
Mean anomaly
263.1594°
Eccentric anomaly
263.15136°
Mean motion
3.64864 °/min
Orbital period
98.67 mins
BSTAR
0.000076063
Loading maneuver chart data...
Computing Atmospheric mass density...
Loading historical data...
Loading historical data...
Loading historical data...
Loading historical data...
Loading historical data...
Loading historical data...
Loading historical data...

Documentation

Showing up to 5 results
|